Weather observations for the past three days for
Monroe Regional Airport
Metric (Imperial)
Date Time (cdt) Wind (kph) Vis. (km) Weather Sky Cond. Temperature (ºC) Relative Humidity Wind Chill (°C) Heat Index (°C) Pressure Precipitation (cm)
Air Dwpt 6 hour altimeter (cm) sea level (mb) 1 hr 3 hr 6 hr
Max. Min.
24 23:53 S 6 16.09 Fair CLR 27.8 23.3 77% 31 75.87 1011.2
24 22:53 S 19 16.09 Fair CLR 28.3 23.3 74% 32 75.77 1010.0
24 21:53 S 13 16.09 Fair CLR 28.9 23.3 72% 33 75.69 1008.8
24 20:53 S 11 16.09 Mostly Cloudy BKN047 29.4 23.3 70% 34 75.69 1008.8
24 19:53 S 11 16.09 Mostly Cloudy BKN045 BKN050 30 23.9 70% 35 75.57 1007.4
24 18:53 S 7 16.09 A Few Clouds FEW048 31.1 23.9 33.3 31.1 66% 37 75.62 1007.9
24 17:53 S 15 16.09 Mostly Cloudy BKN050 BKN060 32.8 23.9 59% 39 75.62 1007.8
24 16:53 S 13 16.09 Mostly Cloudy BKN049 32.2 23.3 59% 37 75.64 1008.2
24 15:53 S 11 G 28 16.09 Partly Cloudy SCT043 33.3 23.9 58% 39 75.67 1008.5
24 14:53 S 22 16.09 Mostly Cloudy BKN038 BKN047 32.2 22.8 58% 37 75.72 1009.1
24 13:53 S 19 16.09 Mostly Cloudy BKN034 31.7 22.8 59% 36 75.77 1009.9
24 12:53 S 19 16.09 Partly Cloudy FEW034 SCT043 31.1 23.3 31.1 25 63% 36 75.79 1010.3
24 11:53 S 17 16.09 A Few Clouds FEW028 30.6 23.3 65% 35 75.82 1010.6
24 10:50 S 13 16.09 Mostly Cloudy BKN014 BKN045 29.4 23.3 70% 34 75.87 1011.2
24 09:53 S 9 16.09 Mostly Cloudy BKN014 BKN020 BKN027 27.2 23.3 79% 30 75.92 1012.0
24 08:53 Vrbl 9 16.09 Overcast OVC014 26.7 23.3 82% 29 75.95 1012.4
24 07:53 Vrbl 7 16.09 Overcast OVC008 25.6 23.3 87% 27 75.9 1011.7
24 06:53 S 9 14.48 Partly Cloudy SCT014 25 22.8 26.7 24.4 88% 26 75.84 1010.9
24 05:53 S 7 16.09 Mostly Cloudy BKN014 25 22.8 88% 26 75.79 1010.4
24 04:53 SE 6 16.09 Mostly Cloudy BKN014 25 22.8 88% 26 75.79 1010.3
24 03:53 Calm 16.09 A Few Clouds FEW016 25 22.8 88% 26 75.79 1010.1
24 02:53 Calm 16.09 Fair CLR 25.6 22.8 85% 27 75.79 1010.4
24 01:53 S 11 16.09 Fair CLR 26.1 22.8 82% 28 75.77 1010.0
24 00:53 SW 13 16.09 Fair CLR 26.7 22.8 27.8 26.1 79% 29 75.77 1010.0
23 23:53 S 19 16.09 Fair CLR 26.7 22.8 79% 29 75.69 1009.1
23 22:53 S 17 G 33 16.09 Fair CLR 27.2 23.3 79% 30 75.69 1008.9
23 21:53 S 9 16.09 Fair CLR 27.8 23.9 79% 32 75.79 1010.4
23 20:53 S 13 16.09 Light Rain FEW120 27.8 24.4 82% 32 75.82 1010.6
23 19:53 Vrbl 7 16.09 Light Rain FEW065 BKN110 27.8 24.4 82% 32 75.79 1010.1
23 18:53 S 7 16.09 Partly Cloudy SCT037 27.8 24.4 30.6 27.2 82% 32 75.87 1011.3 0.03
23 17:53 SE 13 16.09 Overcast BKN025 OVC030 28.9 24.4 77% 34 75.79 1010.3
23 16:53 E 11 16.09 Thunderstorm in Vicinity Light Rain BKN022 BKN041 OVC048 27.8 24.4 82% 32 75.92 1011.9 0.03
23 15:53 E 9 16.09 Mostly Cloudy FEW032 SCT047 BKN065 29.4 23.9 72% 34 75.95 1012.2
23 14:53 E 11 16.09 Mostly Cloudy BKN022 BKN027 BKN040 29.4 23.9 72% 34 76 1012.9
23 13:53 NE 15 16.09 Overcast BKN027 OVC040 29.4 24.4 75% 35 76.02 1013.3
23 12:53 E 7 16.09 Mostly Cloudy BKN020 BKN030 BKN037 30 23.9 30.6 21.7 70% 35 76.05 1013.8
23 11:53 Calm 16.09 Mostly Cloudy BKN020 30 23.3 67% 34 76.05 1013.7
23 10:53 SW 17 G 28 16.09 A Few Clouds FEW018 28.9 23.3 72% 33 76.02 1013.2
23 09:53 SW 17 16.09 Mostly Cloudy BKN015 26.7 22.8 79% 29 75.97 1012.6
23 08:53 Vrbl 9 16.09 Mostly Cloudy FEW010 BKN019 25 22.2 85% 26 75.95 1012.2
23 07:53 SE 6 16.09 Overcast OVC017 23.3 21.7 91% 75.97 1012.7
23 06:53 Calm 16.09 Partly Cloudy SCT019 21.1 19.4 21.1 20.6 90% 75.97 1012.7 0.03
23 05:53 S 7 16.09 A Few Clouds FEW028 FEW040 20.6 18.9 90% 75.95 1012.3
23 04:53 Vrbl 6 16.09 Partly Cloudy SCT025 SCT030 21.1 18.9 87% 75.95 1012.3
23 03:53 SW 7 16.09 A Few Clouds FEW042 20.6 19.4 93% 76.05 1013.7 0.03
23 02:53 SW 15 16.09 Fair CLR 20.6 19.4 93% 76 1012.8
23 01:53 N 13 16.09 A Few Clouds FEW015 21.1 18.9 87% 75.84 1011.1 0.03
23 00:53 S 28 G 46 4.02 Thunderstorm Heavy Rain Fog/Mist FEW012 BKN031 OVC075 21.1 19.4 28.9 21.1 90% 76.02 1013.3 0.84 4.67
22 23:53 W 7 16.09 Thunderstorm Light Rain FEW039 SCT075 BKN120 21.1 20 93% 76.23 1016.0
22 22:53 E 26 G 41 8.05 Thunderstorm Rain Fog/Mist BKN026 BKN110 21.1 19.4 90% 76.02 1013.5 1.91
22 21:53 NE 13 G 26 9.66 Thunderstorm Light Rain Fog/Mist BKN037 OVC048 21.7 20 90% 76.2 1015.8 1.37 1.93
22 20:53 NE 26 G 54 11.27 Thunderstorm Light Rain FEW038 OVC046 22.8 20.6 87% 76.02 1013.4 0.23
22 19:53 E 15 16.09 Thunderstorm BKN033 BKN046 OVC080 25.6 23.3 87% 27 75.9 1011.7 0.33
22 18:53 Vrbl 7 16.09 Thunderstorm in Vicinity Light Rain SCT036 BKN080 OVC100 28.9 23.9 31.7 28.9 74% 33 75.87 1011.3
22 17:53 NE 15 16.09 Partly Cloudy FEW055 FEW070 SCT095 29.4 23.9 72% 34 75.74 1009.6
22 16:53 S 7 16.09 Partly Cloudy SCT035 30.6 23.3 65% 35 75.92 1012.0
22 15:53 S 13 16.09 Fair CLR 31.7 23.3 61% 37 75.79 1010.4
22 14:53 SW 19 16.09 Mostly Cloudy FEW041 SCT060 BKN080 31.7 22.8 59% 36 75.92 1011.9
22 13:53 S 17 16.09 Mostly Cloudy BKN020 BKN055 31.1 22.8 61% 35 75.97 1012.7
22 12:53 S 11 16.09 Partly Cloudy FEW029 SCT045 31.1 23.3 31.1 23.9 63% 36 75.97 1012.8
22 11:53 S 28 G 35 16.09 Mostly Cloudy BKN020 BKN032 30 22.8 65% 34 75.95 1012.4
22 10:53 S 22 G 35 16.09 Mostly Cloudy BKN020 29.4 22.8 68% 33 75.97 1012.5
22 09:53 S 13 G 28 16.09 Mostly Cloudy BKN020 28.3 22.8 72% 32 76.02 1013.3
22 08:53 S 11 16.09 Fair CLR 26.7 22.2 76% 29 76.05 1013.7
22 07:53 S 13 16.09 Fair CLR 25 21.7 82% 26 76.02 1013.5
22 06:53 S 11 16.09 Fair CLR 23.9 20.6 25.6 23.3 82% 24 76.02 1013.2
22 05:53 S 9 16.09 Fair CLR 23.3 20.6 85% 75.95 1012.4
22 04:53 Vrbl 9 14.48 Overcast FEW029 OVC036 24.4 21.1 82% 25 75.97 1012.7
22 03:53 SE 6 16.09 Fair CLR 23.9 21.1 84% 24 76.02 1013.3
22 02:53 Vrbl 6 16.09 Fair CLR 25 20.6 77% 26 75.97 1012.7
22 01:53 E 6 16.09 Fair CLR 24.4 21.1 82% 25 76 1012.8
22 00:53 Calm 16.09 Fair CLR 25.6 20.6 29.4 25 74% 27 75.95 1012.4
Date Time (cdt) Wind (kph) Vis. (km) Weather Sky Cond. Air Dwpt Max. Min. Relative Humidity Wind Chill (°C) Heat Index (°C) altimeter (cm) sea level (mb) 1 hr 3 hr 6 hr
6 hour
Temperature (ºC) Pressure Precipitation (cm)